Time,TemperatureF,DewpointF,PressureIn,WindDirection,WindDirectionDegrees,WindSpeedMPH,WindSpeedGustMPH,Humidity,HourlyPrecipIn,Conditions,Clouds,dailyrainin,SoftwareType,DateUTC
2013-03-03 00:00:00,41.6,27.9,30.27,North,355,0.0,0.0,58,0.00,,SKC,0.00,VWS V14.01,2013-03-03 06:00:00,
2013-03-03 00:05:00,41.5,28.3,30.27,North,355,0.0,0.0,59,0.00,,SKC,0.00,VWS V14.01,2013-03-03 06:05:00,
2013-03-03 00:10:00,41.3,28.1,30.27,North,355,0.0,0.0,59,0.00,,SKC,0.00,VWS V14.01,2013-03-03 06:10:00,
2013-03-03 00:15:00,41.3,28.9,30.27,North,355,0.0,0.0,61,0.00,,SKC,0.00,VWS V14.01,2013-03-03 06:15:00,
2013-03-03 00:20:00,41.3,27.2,30.27,North,355,0.0,0.0,57,0.00,,SKC,0.00,VWS V14.01,2013-03-03 06:20:00,
2013-03-03 00:25:00,41.4,27.3,30.27,North,355,0.0,0.0,57,0.00,,SKC,0.00,VWS V14.01,2013-03-03 06:25:00,
2013-03-03 00:30:00,41.6,27.1,30.27,North,355,0.0,0.0,56,0.00,,SKC,0.00,VWS V14.01,2013-03-03 06:30:00,
2013-03-03 00:35:00,41.7,26.7,30.27,North,355,0.0,0.0,55,0.00,,SKC,0.00,VWS V14.01,2013-03-03 06:35:00,
2013-03-03 00:40:00,41.7,26.7,30.27,North,355,0.0,0.0,55,0.00,,SKC,0.00,VWS V14.01,2013-03-03 06:40:00,
2013-03-03 00:45:00,41.7,26.7,30.26,North,355,0.0,0.0,55,0.00,,SKC,0.00,VWS V14.01,2013-03-03 06:45:00,
2013-03-03 00:50:00,41.5,26.5,30.26,North,355,0.0,0.0,55,0.00,,SKC,0.00,VWS V14.01,2013-03-03 06:50:00,
2013-03-03 00:55:00,41.3,26.4,30.26,North,355,0.0,0.0,55,0.00,,SKC,0.00,VWS V14.01,2013-03-03 06:55:00,
2013-03-03 01:00:00,41.1,26.6,30.26,North,355,0.0,0.0,56,0.00,,SKC,0.00,VWS V14.01,2013-03-03 07:00:00,
2013-03-03 01:05:00,40.9,26.4,30.26,North,355,0.0,0.0,56,0.00,,SKC,0.00,VWS V14.01,2013-03-03 07:05:00,
2013-03-03 01:10:00,40.7,26.2,30.26,North,355,0.0,0.0,56,0.00,,SKC,0.00,VWS V14.01,2013-03-03 07:10:00,
2013-03-03 01:15:00,40.5,26.0,30.27,North,355,0.0,0.0,56,0.00,,SKC,0.00,VWS V14.01,2013-03-03 07:15:00,
2013-03-03 01:20:00,40.4,26.4,30.26,North,355,0.0,0.0,57,0.00,,SKC,0.00,VWS V14.01,2013-03-03 07:20:00,
2013-03-03 01:25:00,40.3,26.3,30.27,North,355,0.0,0.0,57,0.00,,SKC,0.00,VWS V14.01,2013-03-03 07:25:00,
2013-03-03 01:30:00,40.2,26.2,30.27,North,355,0.0,0.0,57,0.00,,SKC,0.00,VWS V14.01,2013-03-03 07:30:00,
2013-03-03 01:35:00,40.0,26.4,30.27,North,355,0.0,0.0,58,0.00,,SKC,0.00,VWS V14.01,2013-03-03 07:35:00,
2013-03-03 01:40:00,39.9,26.3,30.27,North,355,0.0,0.0,58,0.00,,SKC,0.00,VWS V14.01,2013-03-03 07:40:00,
2013-03-03 01:45:00,39.8,26.7,30.26,North,355,0.0,0.0,59,0.00,,SKC,0.00,VWS V14.01,2013-03-03 07:45:00,
2013-03-03 01:50:00,39.7,26.6,30.27,North,355,0.0,0.0,59,0.00,,SKC,0.00,VWS V14.01,2013-03-03 07:50:00,
2013-03-03 01:55:00,39.6,26.5,30.26,North,355,0.0,0.0,59,0.00,,SKC,0.00,VWS V14.01,2013-03-03 07:55:00,
2013-03-03 02:00:00,39.5,26.8,30.26,North,355,0.0,0.0,60,0.00,,SKC,0.00,VWS V14.01,2013-03-03 08:00:00,
2013-03-03 02:05:00,39.4,26.7,30.26,North,355,0.0,0.0,60,0.00,,SKC,0.00,VWS V14.01,2013-03-03 08:05:00,
2013-03-03 02:10:00,39.3,26.6,30.27,North,355,0.0,0.0,60,0.00,,SKC,0.00,VWS V14.01,2013-03-03 08:10:00,
2013-03-03 02:15:00,39.1,26.4,30.26,North,355,0.0,0.0,60,0.00,,SKC,0.00,VWS V14.01,2013-03-03 08:15:00,
2013-03-03 02:20:00,39.0,26.3,30.26,North,355,0.0,0.0,60,0.00,,SKC,0.00,VWS V14.01,2013-03-03 08:20:00,
2013-03-03 02:25:00,38.8,26.5,30.26,North,355,0.0,0.0,61,0.00,,SKC,0.00,VWS V14.01,2013-03-03 08:25:00,
2013-03-03 02:30:00,38.8,26.1,30.25,North,355,0.0,0.0,60,0.00,,SKC,0.00,VWS V14.01,2013-03-03 08:30:00,
2013-03-03 02:35:00,38.7,26.0,30.25,North,355,0.0,0.0,60,0.00,,SKC,0.00,VWS V14.01,2013-03-03 08:35:00,
2013-03-03 02:40:00,38.6,26.3,30.25,North,355,0.0,0.0,61,0.00,,SKC,0.00,VWS V14.01,2013-03-03 08:40:00,
2013-03-03 02:45:00,38.4,26.1,30.25,North,355,0.0,0.0,61,0.00,,SKC,0.00,VWS V14.01,2013-03-03 08:45:00,
2013-03-03 02:50:00,38.2,26.3,30.25,North,355,0.0,0.0,62,0.00,,SKC,0.00,VWS V14.01,2013-03-03 08:50:00,
2013-03-03 02:55:00,38.1,26.2,30.25,North,355,0.0,0.0,62,0.00,,SKC,0.00,VWS V14.01,2013-03-03 08:55:00,
2013-03-03 03:00:00,37.9,26.1,30.24,North,355,0.0,0.0,62,0.00,,SKC,0.00,VWS V14.01,2013-03-03 09:00:00,
2013-03-03 03:05:00,37.7,26.3,30.24,North,355,0.0,0.0,63,0.00,,SKC,0.00,VWS V14.01,2013-03-03 09:05:00,
2013-03-03 03:10:00,37.5,26.1,30.24,North,355,0.0,0.0,63,0.00,,SKC,0.00,VWS V14.01,2013-03-03 09:10:00,
2013-03-03 03:15:00,37.4,26.4,30.24,North,355,0.0,0.0,64,0.00,,SKC,0.00,VWS V14.01,2013-03-03 09:15:00,
2013-03-03 03:20:00,37.3,26.3,30.24,North,355,0.0,0.0,64,0.00,,SKC,0.00,VWS V14.01,2013-03-03 09:20:00,
2013-03-03 03:25:00,37.3,26.3,30.24,North,355,0.0,0.0,64,0.00,,SKC,0.00,VWS V14.01,2013-03-03 09:25:00,
2013-03-03 03:30:00,37.3,26.3,30.24,North,355,0.0,0.0,64,0.00,,SKC,0.00,VWS V14.01,2013-03-03 09:30:00,
2013-03-03 03:35:00,37.3,26.3,30.24,North,355,0.0,0.0,64,0.00,,SKC,0.00,VWS V14.01,2013-03-03 09:35:00,
2013-03-03 03:40:00,37.2,26.2,30.24,North,355,0.0,0.0,64,0.00,,SKC,0.00,VWS V14.01,2013-03-03 09:40:00,
2013-03-03 03:45:00,37.1,26.1,30.23,North,355,0.0,0.0,64,0.00,,SKC,0.00,VWS V14.01,2013-03-03 09:45:00,
2013-03-03 03:50:00,37.0,26.0,30.23,North,355,0.0,0.0,64,0.00,,SKC,0.00,VWS V14.01,2013-03-03 09:50:00,
2013-03-03 03:55:00,36.9,25.9,30.23,North,355,0.0,0.0,64,0.00,,SKC,0.00,VWS V14.01,2013-03-03 09:55:00,
2013-03-03 04:00:00,36.8,25.8,30.23,North,355,0.0,0.0,64,0.00,,SKC,0.00,VWS V14.01,2013-03-03 10:00:00,
2013-03-03 04:05:00,36.9,26.6,30.23,North,355,0.0,0.0,66,0.00,,SKC,0.00,VWS V14.01,2013-03-03 10:05:00,
2013-03-03 04:10:00,37.0,26.3,30.23,North,355,0.0,0.0,65,0.00,,SKC,0.00,VWS V14.01,2013-03-03 10:10:00,
2013-03-03 04:15:00,37.0,26.3,30.24,North,355,0.0,0.0,65,0.00,,SKC,0.00,VWS V14.01,2013-03-03 10:15:00,
2013-03-03 04:20:00,37.0,26.0,30.24,North,355,0.0,0.0,64,0.00,,SKC,0.00,VWS V14.01,2013-03-03 10:20:00,
2013-03-03 04:25:00,37.0,26.0,30.24,North,355,0.0,0.0,64,0.00,,SKC,0.00,VWS V14.01,2013-03-03 10:25:00,
2013-03-03 04:30:00,37.1,26.1,30.23,North,355,0.0,0.0,64,0.00,,SKC,0.00,VWS V14.01,2013-03-03 10:30:00,
2013-03-03 04:35:00,37.1,26.1,30.23,North,355,0.0,0.0,64,0.00,,SKC,0.00,VWS V14.01,2013-03-03 10:35:00,
2013-03-03 04:40:00,37.1,25.7,30.23,North,355,0.0,0.0,63,0.00,,SKC,0.00,VWS V14.01,2013-03-03 10:40:00,
2013-03-03 04:45:00,37.0,26.0,30.24,North,355,0.0,0.0,64,0.00,,SKC,0.00,VWS V14.01,2013-03-03 10:45:00,
2013-03-03 04:50:00,36.9,25.9,30.24,North,355,0.0,0.0,64,0.00,,SKC,0.00,VWS V14.01,2013-03-03 10:50:00,
2013-03-03 04:55:00,36.8,25.8,30.24,North,355,0.0,0.0,64,0.00,,SKC,0.00,VWS V14.01,2013-03-03 10:55:00,
2013-03-03 05:00:00,36.8,25.8,30.24,North,355,0.0,0.0,64,0.00,,SKC,0.00,VWS V14.01,2013-03-03 11:00:00,
2013-03-03 05:05:00,37.0,26.0,30.24,North,355,0.0,0.0,64,0.00,,SKC,0.00,VWS V14.01,2013-03-03 11:05:00,
2013-03-03 05:10:00,37.2,26.2,30.24,North,355,0.0,0.0,64,0.00,,SKC,0.00,VWS V14.01,2013-03-03 11:10:00,
2013-03-03 05:15:00,37.1,26.1,30.24,North,355,0.0,0.0,64,0.00,,SKC,0.00,VWS V14.01,2013-03-03 11:15:00,
2013-03-03 05:20:00,37.1,26.1,30.24,North,355,0.0,0.0,64,0.00,,SKC,0.00,VWS V14.01,2013-03-03 11:20:00,
2013-03-03 05:25:00,37.1,26.1,30.24,North,355,0.0,0.0,64,0.00,,SKC,0.00,VWS V14.01,2013-03-03 11:25:00,
2013-03-03 05:30:00,37.2,26.2,30.24,North,355,0.0,0.0,64,0.00,,SKC,0.00,VWS V14.01,2013-03-03 11:30:00,
2013-03-03 05:35:00,37.2,26.2,30.23,North,355,0.0,0.0,64,0.00,,SKC,0.00,VWS V14.01,2013-03-03 11:35:00,
2013-03-03 05:40:00,37.1,26.1,30.24,North,355,0.0,0.0,64,0.00,,SKC,0.00,VWS V14.01,2013-03-03 11:40:00,
2013-03-03 05:45:00,37.1,26.1,30.23,North,355,0.0,0.0,64,0.00,,SKC,0.00,VWS V14.01,2013-03-03 11:45:00,
2013-03-03 05:50:00,37.1,26.4,30.23,North,355,0.0,0.0,65,0.00,,SKC,0.00,VWS V14.01,2013-03-03 11:50:00,
2013-03-03 05:55:00,37.0,26.3,30.23,North,355,0.0,0.0,65,0.00,,SKC,0.00,VWS V14.01,2013-03-03 11:55:00,
2013-03-03 06:00:00,36.9,26.2,30.23,North,355,0.0,0.0,65,0.00,,SKC,0.00,VWS V14.01,2013-03-03 12:00:00,
2013-03-03 06:05:00,36.7,26.4,30.23,North,355,0.0,0.0,66,0.00,,SKC,0.00,VWS V14.01,2013-03-03 12:05:00,
2013-03-03 06:10:00,36.6,26.3,30.24,North,355,0.0,0.0,66,0.00,,SKC,0.00,VWS V14.01,2013-03-03 12:10:00,
2013-03-03 06:15:00,36.6,26.7,30.23,North,355,0.0,0.0,67,0.00,,SKC,0.00,VWS V14.01,2013-03-03 12:15:00,
2013-03-03 06:20:00,36.4,26.5,30.24,North,355,0.0,0.0,67,0.00,,SKC,0.00,VWS V14.01,2013-03-03 12:20:00,
2013-03-03 06:25:00,36.2,26.3,30.24,North,355,0.0,0.0,67,0.00,,SKC,0.00,VWS V14.01,2013-03-03 12:25:00,
2013-03-03 06:30:00,36.0,26.1,30.24,North,355,0.0,0.0,67,0.00,,SKC,0.00,VWS V14.01,2013-03-03 12:30:00,
2013-03-03 06:35:00,36.0,26.5,30.24,North,355,0.0,0.0,68,0.00,,SKC,0.00,VWS V14.01,2013-03-03 12:35:00,
2013-03-03 06:40:00,35.9,26.4,30.24,North,355,0.0,0.0,68,0.00,,SKC,0.00,VWS V14.01,2013-03-03 12:40:00,
2013-03-03 06:45:00,35.8,26.3,30.24,North,355,0.0,0.0,68,0.00,,SKC,0.00,VWS V14.01,2013-03-03 12:45:00,
2013-03-03 06:50:00,35.8,26.3,30.24,North,355,0.0,0.0,68,0.00,,SKC,0.00,VWS V14.01,2013-03-03 12:50:00,
2013-03-03 06:55:00,35.8,26.3,30.24,North,355,0.0,0.0,68,0.00,,SKC,0.00,VWS V14.01,2013-03-03 12:55:00,
2013-03-03 07:00:00,35.7,26.2,30.24,North,355,0.0,0.0,68,0.00,,SKC,0.00,VWS V14.01,2013-03-03 13:00:00,
2013-03-03 07:05:00,35.6,26.1,30.24,North,355,0.0,0.0,68,0.00,,SKC,0.00,VWS V14.01,2013-03-03 13:05:00,
2013-03-03 07:10:00,35.7,26.2,30.24,North,355,0.0,0.0,68,0.00,,SKC,0.00,VWS V14.01,2013-03-03 13:10:00,
2013-03-03 07:15:00,35.7,26.2,30.24,North,355,0.0,0.0,68,0.00,,SKC,0.00,VWS V14.01,2013-03-03 13:15:00,
2013-03-03 07:20:00,35.7,26.5,30.24,North,355,0.0,0.0,69,0.00,,SKC,0.00,VWS V14.01,2013-03-03 13:20:00,
2013-03-03 07:25:00,35.9,26.7,30.24,North,355,0.0,0.0,69,0.00,,SKC,0.00,VWS V14.01,2013-03-03 13:25:00,
2013-03-03 07:30:00,35.9,26.4,30.24,North,355,0.0,0.0,68,0.00,,SKC,0.00,VWS V14.01,2013-03-03 13:30:00,
2013-03-03 07:35:00,36.0,26.5,30.24,North,355,0.0,0.0,68,0.00,,SKC,0.00,VWS V14.01,2013-03-03 13:35:00,
2013-03-03 07:40:00,36.1,26.6,30.25,North,355,0.0,0.0,68,0.00,,SKC,0.00,VWS V14.01,2013-03-03 13:40:00,
2013-03-03 07:45:00,36.4,26.9,30.25,North,355,0.0,0.0,68,0.00,,SKC,0.00,VWS V14.01,2013-03-03 13:45:00,
2013-03-03 07:50:00,37.0,26.7,30.25,North,355,0.0,0.0,66,0.00,,SKC,0.00,VWS V14.01,2013-03-03 13:50:00,
2013-03-03 07:55:00,37.5,27.2,30.25,North,355,0.0,0.0,66,0.00,,SKC,0.00,VWS V14.01,2013-03-03 13:55:00,
2013-03-03 08:00:00,38.2,27.5,30.25,North,355,0.0,0.0,65,0.00,,SKC,0.00,VWS V14.01,2013-03-03 14:00:00,
2013-03-03 08:05:00,39.3,27.8,30.25,North,355,0.0,0.0,63,0.00,,SKC,0.00,VWS V14.01,2013-03-03 14:05:00,
2013-03-03 08:10:00,40.7,28.3,30.25,North,355,0.0,0.0,61,0.00,,SKC,0.00,VWS V14.01,2013-03-03 14:10:00,
2013-03-03 08:15:00,42.1,28.8,30.25,North,355,0.0,0.0,59,0.00,,SKC,0.00,VWS V14.01,2013-03-03 14:15:00,
2013-03-03 08:20:00,43.5,29.3,30.25,North,355,0.0,0.0,57,0.00,,SKC,0.00,VWS V14.01,2013-03-03 14:20:00,
2013-03-03 08:25:00,45.0,29.8,30.25,North,355,0.0,0.0,55,0.00,,SKC,0.00,VWS V14.01,2013-03-03 14:25:00,
2013-03-03 08:30:00,46.4,30.2,30.25,North,355,0.0,1.0,53,0.00,,SKC,0.00,VWS V14.01,2013-03-03 14:30:00,
2013-03-03 08:35:00,47.6,30.9,30.25,North,355,0.0,1.0,52,0.00,,SKC,0.00,VWS V14.01,2013-03-03 14:35:00,
2013-03-03 08:40:00,48.7,30.9,30.25,North,355,0.0,0.0,50,0.00,,SKC,0.00,VWS V14.01,2013-03-03 14:40:00,
2013-03-03 08:45:00,49.8,31.4,30.24,North,355,0.0,1.0,49,0.00,,SKC,0.00,VWS V14.01,2013-03-03 14:45:00,
2013-03-03 08:50:00,50.6,31.1,30.25,North,355,0.0,0.0,47,0.00,,SKC,0.00,VWS V14.01,2013-03-03 14:50:00,
2013-03-03 08:55:00,51.4,31.9,30.25,North,355,0.0,0.0,47,0.00,,SKC,0.00,VWS V14.01,2013-03-03 14:55:00,
2013-03-03 09:00:00,52.2,32.1,30.25,North,355,0.0,0.0,46,0.00,,SKC,0.00,VWS V14.01,2013-03-03 15:00:00,
2013-03-03 09:05:00,52.7,32.5,30.25,North,355,0.0,2.0,46,0.00,,SKC,0.00,VWS V14.01,2013-03-03 15:05:00,
2013-03-03 09:10:00,53.0,33.3,30.25,NNW,334,2.0,4.0,47,0.00,,SKC,0.00,VWS V14.01,2013-03-03 15:10:00,
2013-03-03 09:15:00,53.3,33.6,30.25,NW,323,2.0,6.0,47,0.00,,SKC,0.00,VWS V14.01,2013-03-03 15:15:00,
2013-03-03 09:20:00,54.0,34.2,30.25,NW,321,0.0,2.0,47,0.00,,SKC,0.00,VWS V14.01,2013-03-03 15:20:00,
2013-03-03 09:25:00,55.0,35.7,30.24,SSW,196,1.0,6.0,48,0.00,,SKC,0.00,VWS V14.01,2013-03-03 15:25:00,
2013-03-03 09:30:00,55.7,36.3,30.24,SSW,211,3.0,8.0,48,0.00,,SKC,0.00,VWS V14.01,2013-03-03 15:30:00,
2013-03-03 09:35:00,56.1,36.7,30.24,SSW,212,1.0,9.0,48,0.00,,SKC,0.00,VWS V14.01,2013-03-03 15:35:00,
2013-03-03 09:40:00,56.6,36.6,30.24,SSW,213,2.0,8.0,47,0.00,,SKC,0.00,VWS V14.01,2013-03-03 15:40:00,
2013-03-03 09:45:00,56.9,36.3,30.24,SSW,212,7.0,8.0,46,0.00,,SKC,0.00,VWS V14.01,2013-03-03 15:45:00,
2013-03-03 09:50:00,57.3,36.7,30.24,SW,220,4.0,9.0,46,0.00,,SKC,0.00,VWS V14.01,2013-03-03 15:50:00,
2013-03-03 09:55:00,57.7,36.5,30.24,SSW,202,0.0,10.0,45,0.00,,SKC,0.00,VWS V14.01,2013-03-03 15:55:00,
2013-03-03 10:00:00,58.1,36.9,30.23,SSW,208,6.0,11.0,45,0.00,,SKC,0.00,VWS V14.01,2013-03-03 16:00:00,
2013-03-03 10:05:00,58.4,37.2,30.23,SSW,198,2.0,11.0,45,0.00,,SKC,0.00,VWS V14.01,2013-03-03 16:05:00,
2013-03-03 10:10:00,59.1,37.8,30.23,SW,232,3.0,12.0,45,0.00,,SKC,0.00,VWS V14.01,2013-03-03 16:10:00,
2013-03-03 10:15:00,59.7,37.8,30.23,SW,220,2.0,12.0,44,0.00,,SKC,0.00,VWS V14.01,2013-03-03 16:15:00,
2013-03-03 10:20:00,60.2,37.6,30.23,South,179,6.0,9.0,43,0.00,,SKC,0.00,VWS V14.01,2013-03-03 16:20:00,
2013-03-03 10:25:00,60.6,38.0,30.23,SSW,204,0.0,9.0,43,0.00,,SKC,0.00,VWS V14.01,2013-03-03 16:25:00,
2013-03-03 10:30:00,61.0,37.8,30.22,SSW,211,0.0,6.0,42,0.00,,SKC,0.00,VWS V14.01,2013-03-03 16:30:00,
2013-03-03 10:35:00,61.5,38.2,30.22,SSW,202,6.0,8.0,42,0.00,,SKC,0.00,VWS V14.01,2013-03-03 16:35:00,
2013-03-03 10:40:00,61.7,37.8,30.22,SSW,193,4.0,6.0,41,0.00,,SKC,0.00,VWS V14.01,2013-03-03 16:40:00,
2013-03-03 10:45:00,62.3,38.3,30.22,South,191,2.0,10.0,41,0.00,,SKC,0.00,VWS V14.01,2013-03-03 16:45:00,
2013-03-03 10:50:00,62.7,38.0,30.22,SW,220,1.0,7.0,40,0.00,,SKC,0.00,VWS V14.01,2013-03-03 16:50:00,
2013-03-03 10:55:00,63.2,37.9,30.21,SSW,193,0.0,7.0,39,0.00,,SKC,0.00,VWS V14.01,2013-03-03 16:55:00,
2013-03-03 11:00:00,63.7,38.3,30.21,SSW,209,4.0,6.0,39,0.00,,SKC,0.00,VWS V14.01,2013-03-03 17:00:00,
2013-03-03 11:05:00,64.0,37.9,30.20,SSW,213,6.0,8.0,38,0.00,,SKC,0.00,VWS V14.01,2013-03-03 17:05:00,
2013-03-03 11:10:00,63.9,37.8,30.20,SSW,211,5.0,7.0,38,0.00,,SKC,0.00,VWS V14.01,2013-03-03 17:10:00,
2013-03-03 11:15:00,64.1,38.0,30.20,SW,216,0.0,11.0,38,0.00,,SKC,0.00,VWS V14.01,2013-03-03 17:15:00,
2013-03-03 11:20:00,64.6,37.8,30.20,SW,222,6.0,9.0,37,0.00,,SKC,0.00,VWS V14.01,2013-03-03 17:20:00,
2013-03-03 11:25:00,65.0,37.4,30.20,SSW,208,7.0,10.0,36,0.00,,SKC,0.00,VWS V14.01,2013-03-03 17:25:00,
2013-03-03 11:30:00,65.0,37.4,30.19,SSW,207,0.0,11.0,36,0.00,,SKC,0.00,VWS V14.01,2013-03-03 17:30:00,
2013-03-03 11:35:00,65.3,38.4,30.19,WSW,239,7.0,11.0,37,0.00,,SKC,0.00,VWS V14.01,2013-03-03 17:35:00,
2013-03-03 11:40:00,65.7,38.0,30.18,SW,216,1.0,8.0,36,0.00,,SKC,0.00,VWS V14.01,2013-03-03 17:40:00,
2013-03-03 11:45:00,66.0,37.6,30.18,SSW,213,1.0,13.0,35,0.00,,SKC,0.00,VWS V14.01,2013-03-03 17:45:00,
2013-03-03 11:50:00,66.1,38.4,30.18,SW,229,2.0,10.0,36,0.00,,SKC,0.00,VWS V14.01,2013-03-03 17:50:00,
2013-03-03 11:55:00,66.5,38.0,30.17,South,191,0.0,10.0,35,0.00,,SKC,0.00,VWS V14.01,2013-03-03 17:55:00,
2013-03-03 12:00:00,67.2,37.9,30.17,SSW,199,5.0,9.0,34,0.00,,SKC,0.00,VWS V14.01,2013-03-03 18:00:00,
2013-03-03 12:05:00,67.6,37.5,30.16,SW,225,5.0,12.0,33,0.00,,SKC,0.00,VWS V14.01,2013-03-03 18:05:00,
2013-03-03 12:10:00,68.2,37.2,30.16,SW,228,9.0,15.0,32,0.00,,SKC,0.00,VWS V14.01,2013-03-03 18:10:00,
2013-03-03 12:15:00,68.7,38.5,30.16,SSW,208,4.0,15.0,33,0.00,,SKC,0.00,VWS V14.01,2013-03-03 18:15:00,
2013-03-03 12:20:00,69.0,37.9,30.15,SSE,157,0.0,12.0,32,0.00,,SKC,0.00,VWS V14.01,2013-03-03 18:20:00,
2013-03-03 12:25:00,69.3,38.2,30.15,SW,219,11.0,14.0,32,0.00,,SKC,0.00,VWS V14.01,2013-03-03 18:25:00,
2013-03-03 12:30:00,69.6,37.7,30.14,South,172,2.0,9.0,31,0.00,,SKC,0.00,VWS V14.01,2013-03-03 18:30:00,
2013-03-03 12:35:00,69.9,38.7,30.14,SSW,197,0.0,9.0,32,0.00,,SKC,0.00,VWS V14.01,2013-03-03 18:35:00,
2013-03-03 12:40:00,70.1,38.1,30.13,SSW,211,12.0,12.0,31,0.00,,SKC,0.00,VWS V14.01,2013-03-03 18:40:00,
2013-03-03 12:45:00,70.4,37.5,30.12,SW,218,1.0,13.0,30,0.00,,SKC,0.00,VWS V14.01,2013-03-03 18:45:00,
2013-03-03 12:50:00,70.6,37.7,30.12,South,180,0.0,12.0,30,0.00,,SKC,0.00,VWS V14.01,2013-03-03 18:50:00,
2013-03-03 12:55:00,71.1,37.3,30.12,SSE,167,0.0,12.0,29,0.00,,SKC,0.00,VWS V14.01,2013-03-03 18:55:00,
2013-03-03 13:00:00,71.1,38.1,30.12,SSW,205,11.0,11.0,30,0.00,,SKC,0.00,VWS V14.01,2013-03-03 19:00:00,
2013-03-03 13:05:00,71.4,37.5,30.11,SSW,210,2.0,11.0,29,0.00,,SKC,0.00,VWS V14.01,2013-03-03 19:05:00,
2013-03-03 13:10:00,71.7,36.9,30.11,South,178,6.0,11.0,28,0.00,,SKC,0.00,VWS V14.01,2013-03-03 19:10:00,
2013-03-03 13:15:00,71.9,38.0,30.11,SSW,206,3.0,11.0,29,0.00,,SKC,0.00,VWS V14.01,2013-03-03 19:15:00,
2013-03-03 13:20:00,72.1,37.2,30.11,SW,234,4.0,18.0,28,0.00,,SKC,0.00,VWS V14.01,2013-03-03 19:20:00,
2013-03-03 13:25:00,72.2,37.3,30.10,SSW,213,4.0,18.0,28,0.00,,SKC,0.00,VWS V14.01,2013-03-03 19:25:00,
2013-03-03 13:30:00,72.3,37.4,30.10,SW,219,0.0,12.0,28,0.00,,SKC,0.00,VWS V14.01,2013-03-03 19:30:00,
2013-03-03 13:35:00,72.6,36.7,30.09,SSW,199,0.0,12.0,27,0.00,,SKC,0.00,VWS V14.01,2013-03-03 19:35:00,
2013-03-03 13:40:00,72.7,35.9,30.09,SSW,193,5.0,13.0,26,0.00,,SKC,0.00,VWS V14.01,2013-03-03 19:40:00,
2013-03-03 13:45:00,72.7,36.8,30.09,SW,222,7.0,13.0,27,0.00,,SKC,0.00,VWS V14.01,2013-03-03 19:45:00,
2013-03-03 13:50:00,72.8,36.0,30.08,SSW,198,0.0,10.0,26,0.00,,SKC,0.00,VWS V14.01,2013-03-03 19:50:00,
2013-03-03 13:55:00,73.0,37.1,30.08,SSE,164,0.0,11.0,27,0.00,,SKC,0.00,VWS V14.01,2013-03-03 19:55:00,
2013-03-03 14:00:00,73.4,37.4,30.08,SSW,202,0.0,11.0,27,0.00,,SKC,0.00,VWS V14.01,2013-03-03 20:00:00,
2013-03-03 14:05:00,73.4,36.5,30.08,SSE,157,3.0,11.0,26,0.00,,SKC,0.00,VWS V14.01,2013-03-03 20:05:00,
2013-03-03 14:10:00,73.5,36.5,30.07,South,178,1.0,8.0,26,0.00,,SKC,0.00,VWS V14.01,2013-03-03 20:10:00,
2013-03-03 14:15:00,73.7,36.7,30.07,South,169,4.0,13.0,26,0.00,,SKC,0.00,VWS V14.01,2013-03-03 20:15:00,
2013-03-03 14:20:00,73.3,37.3,30.07,SSE,165,0.0,13.0,27,0.00,,SKC,0.00,VWS V14.01,2013-03-03 20:20:00,
2013-03-03 14:25:00,73.4,37.4,30.07,South,174,2.0,13.0,27,0.00,,SKC,0.00,VWS V14.01,2013-03-03 20:25:00,
2013-03-03 14:30:00,73.6,37.6,30.06,SSW,199,1.0,7.0,27,0.00,,SKC,0.00,VWS V14.01,2013-03-03 20:30:00,
2013-03-03 14:35:00,73.8,37.8,30.06,SSW,196,2.0,10.0,27,0.00,,SKC,0.00,VWS V14.01,2013-03-03 20:35:00,
2013-03-03 14:40:00,74.2,38.1,30.06,South,190,5.0,12.0,27,0.00,,SKC,0.00,VWS V14.01,2013-03-03 20:40:00,
2013-03-03 14:45:00,74.4,37.3,30.06,SSE,165,3.0,12.0,26,0.00,,SKC,0.00,VWS V14.01,2013-03-03 20:45:00,
2013-03-03 14:50:00,74.4,37.3,30.05,SSW,202,2.0,16.0,26,0.00,,SKC,0.00,VWS V14.01,2013-03-03 20:50:00,
2013-03-03 14:55:00,74.5,38.4,30.05,SSW,206,6.0,16.0,27,0.00,,SKC,0.00,VWS V14.01,2013-03-03 20:55:00,
2013-03-03 15:00:00,74.7,37.6,30.05,SSW,212,0.0,12.0,26,0.00,,SKC,0.00,VWS V14.01,2013-03-03 21:00:00,
2013-03-03 15:05:00,74.9,37.7,30.05,SW,216,12.0,13.0,26,0.00,,SKC,0.00,VWS V14.01,2013-03-03 21:05:00,
2013-03-03 15:10:00,74.8,37.7,30.04,South,190,1.0,7.0,26,0.00,,SKC,0.00,VWS V14.01,2013-03-03 21:10:00,
2013-03-03 15:15:00,75.1,37.9,30.04,SSE,161,9.0,14.0,26,0.00,,SKC,0.00,VWS V14.01,2013-03-03 21:15:00,
2013-03-03 15:20:00,75.5,38.2,30.03,SSE,162,2.0,10.0,26,0.00,,SKC,0.00,VWS V14.01,2013-03-03 21:20:00,
2013-03-03 15:25:00,75.9,38.6,30.03,SSW,200,5.0,10.0,26,0.00,,SKC,0.00,VWS V14.01,2013-03-03 21:25:00,
2013-03-03 15:30:00,76.2,38.8,30.03,SW,225,4.0,8.0,26,0.00,,SKC,0.00,VWS V14.01,2013-03-03 21:30:00,
2013-03-03 15:35:00,76.4,38.0,30.03,SSW,194,0.0,9.0,25,0.00,,SKC,0.00,VWS V14.01,2013-03-03 21:35:00,
2013-03-03 15:40:00,76.5,38.1,30.02,SSW,205,4.0,13.0,25,0.00,,SKC,0.00,VWS V14.01,2013-03-03 21:40:00,
2013-03-03 15:45:00,76.6,38.2,30.02,SSE,155,3.0,13.0,25,0.00,,SKC,0.00,VWS V14.01,2013-03-03 21:45:00,
2013-03-03 15:50:00,76.6,37.1,30.01,SSE,155,2.0,13.0,24,0.00,,SKC,0.00,VWS V14.01,2013-03-03 21:50:00,
2013-03-03 15:55:00,76.5,37.1,30.01,South,171,1.0,13.0,24,0.00,,SKC,0.00,VWS V14.01,2013-03-03 21:55:00,
2013-03-03 16:00:00,76.7,36.2,30.00,SSW,200,6.0,9.0,23,0.00,,SKC,0.00,VWS V14.01,2013-03-03 22:00:00,
2013-03-03 16:05:00,76.9,36.3,30.00,SSE,165,0.0,13.0,23,0.00,,SKC,0.00,VWS V14.01,2013-03-03 22:05:00,
2013-03-03 16:10:00,77.1,35.4,30.00,SSW,203,0.0,8.0,22,0.00,,SKC,0.00,VWS V14.01,2013-03-03 22:10:00,
2013-03-03 16:15:00,77.0,35.3,30.00,South,183,3.0,13.0,22,0.00,,SKC,0.00,VWS V14.01,2013-03-03 22:15:00,
2013-03-03 16:20:00,77.0,35.3,30.00,South,169,8.0,13.0,22,0.00,,SKC,0.00,VWS V14.01,2013-03-03 22:20:00,
2013-03-03 16:25:00,76.9,35.2,29.99,SE,139,8.0,15.0,22,0.00,,SKC,0.00,VWS V14.01,2013-03-03 22:25:00,
2013-03-03 16:30:00,76.9,35.2,29.99,South,182,3.0,11.0,22,0.00,,SKC,0.00,VWS V14.01,2013-03-03 22:30:00,
2013-03-03 16:35:00,76.9,35.2,29.99,SSW,201,1.0,11.0,22,0.00,,SKC,0.00,VWS V14.01,2013-03-03 22:35:00,
2013-03-03 16:40:00,76.9,35.2,29.99,SSW,212,1.0,9.0,22,0.00,,SKC,0.00,VWS V14.01,2013-03-03 22:40:00,
2013-03-03 16:45:00,77.1,35.4,29.98,SSW,194,1.0,9.0,22,0.00,,SKC,0.00,VWS V14.01,2013-03-03 22:45:00,
2013-03-03 16:50:00,77.2,35.5,29.98,SSW,203,2.0,11.0,22,0.00,,SKC,0.00,VWS V14.01,2013-03-03 22:50:00,
2013-03-03 16:55:00,77.3,34.4,29.98,SSW,195,5.0,11.0,21,0.00,,SKC,0.00,VWS V14.01,2013-03-03 22:55:00,
2013-03-03 17:00:00,77.1,35.4,29.98,SSW,202,2.0,15.0,22,0.00,,SKC,0.00,VWS V14.01,2013-03-03 23:00:00,
2013-03-03 17:05:00,77.0,35.3,29.97,South,169,0.0,15.0,22,0.00,,SKC,0.00,VWS V14.01,2013-03-03 23:05:00,
2013-03-03 17:10:00,77.0,35.3,29.97,South,182,2.0,9.0,22,0.00,,SKC,0.00,VWS V14.01,2013-03-03 23:10:00,
2013-03-03 17:15:00,76.9,35.2,29.97,SW,217,0.0,11.0,22,0.00,,SKC,0.00,VWS V14.01,2013-03-03 23:15:00,
2013-03-03 17:20:00,76.6,36.1,29.97,South,174,0.0,13.0,23,0.00,,SKC,0.00,VWS V14.01,2013-03-03 23:20:00,
2013-03-03 17:25:00,76.1,35.7,29.97,SSE,160,0.0,13.0,23,0.00,,SKC,0.00,VWS V14.01,2013-03-03 23:25:00,
2013-03-03 17:30:00,75.6,35.2,29.97,SSW,198,6.0,10.0,23,0.00,,SKC,0.00,VWS V14.01,2013-03-03 23:30:00,
2013-03-03 17:35:00,75.2,36.0,29.97,South,188,0.0,12.0,24,0.00,,SKC,0.00,VWS V14.01,2013-03-03 23:35:00,
2013-03-03 17:40:00,74.9,35.7,29.97,SSE,165,9.0,12.0,24,0.00,,SKC,0.00,VWS V14.01,2013-03-03 23:40:00,
2013-03-03 17:45:00,74.6,35.5,29.97,South,174,0.0,12.0,24,0.00,,SKC,0.00,VWS V14.01,2013-03-03 23:45:00,
2013-03-03 17:50:00,74.3,35.2,29.97,SSE,163,2.0,9.0,24,0.00,,SKC,0.00,VWS V14.01,2013-03-03 23:50:00,
2013-03-03 17:55:00,74.1,35.0,29.97,SE,146,0.0,11.0,24,0.00,,SKC,0.00,VWS V14.01,2013-03-03 23:55:00,
2013-03-03 18:00:00,73.9,34.9,29.97,SSE,163,2.0,7.0,24,0.00,,SKC,0.00,VWS V14.01,2013-03-04 00:00:00,
2013-03-03 18:05:00,73.6,34.6,29.97,SSE,161,8.0,12.0,24,0.00,,SKC,0.00,VWS V14.01,2013-03-04 00:05:00,
2013-03-03 18:10:00,73.4,34.5,29.97,SSE,167,4.0,6.0,24,0.00,,SKC,0.00,VWS V14.01,2013-03-04 00:10:00,
2013-03-03 18:15:00,73.1,35.2,29.97,SSE,155,0.0,9.0,25,0.00,,SKC,0.00,VWS V14.01,2013-03-04 00:15:00,
2013-03-03 18:20:00,72.8,35.0,29.97,SSE,157,0.0,7.0,25,0.00,,SKC,0.00,VWS V14.01,2013-03-04 00:20:00,
2013-03-03 18:25:00,72.5,34.7,29.97,SSE,159,0.0,7.0,25,0.00,,SKC,0.00,VWS V14.01,2013-03-04 00:25:00,
2013-03-03 18:30:00,72.1,35.4,29.97,SSE,156,4.0,4.0,26,0.00,,SKC,0.00,VWS V14.01,2013-03-04 00:30:00,
2013-03-03 18:35:00,71.7,35.0,29.97,SSE,157,0.0,8.0,26,0.00,,SKC,0.00,VWS V14.01,2013-03-04 00:35:00,
2013-03-03 18:40:00,71.3,34.7,29.97,SSE,157,0.0,0.0,26,0.00,,SKC,0.00,VWS V14.01,2013-03-04 00:40:00,
2013-03-03 18:45:00,70.9,34.3,29.97,SSE,157,0.0,0.0,26,0.00,,SKC,0.00,VWS V14.01,2013-03-04 00:45:00,
2013-03-03 18:50:00,70.5,34.9,29.97,SSE,158,5.0,6.0,27,0.00,,SKC,0.00,VWS V14.01,2013-03-04 00:50:00,
2013-03-03 18:55:00,70.1,34.6,29.97,SSE,157,0.0,6.0,27,0.00,,SKC,0.00,VWS V14.01,2013-03-04 00:55:00,
2013-03-03 19:00:00,69.7,34.3,29.97,SSE,157,0.0,2.0,27,0.00,,SKC,0.00,VWS V14.01,2013-03-04 01:00:00,
2013-03-03 19:05:00,69.4,34.0,29.97,SSE,157,0.0,2.0,27,0.00,,SKC,0.00,VWS V14.01,2013-03-04 01:05:00,
2013-03-03 19:10:00,68.9,34.5,29.97,SSE,157,0.0,3.0,28,0.00,,SKC,0.00,VWS V14.01,2013-03-04 01:10:00,
2013-03-03 19:15:00,68.6,34.2,29.97,SSE,157,0.0,3.0,28,0.00,,SKC,0.00,VWS V14.01,2013-03-04 01:15:00,
2013-03-03 19:19:00,68.2,35.6,29.97,SSE,152,1.0,14.0,30,0.00,,SKC,0.00,VWS V14.01,2013-03-04 01:19:00,
2013-03-03 19:20:00,64.6,43.9,29.97,SSE,167,9.0,15.0,47,0.00,,SKC,0.00,VWS V14.01,2013-03-04 01:20:00,
2013-03-03 19:24:00,68.0,37.8,29.97,South,169,2.0,14.0,33,0.00,,SKC,0.00,VWS V14.01,2013-03-04 01:24:00,
2013-03-03 19:29:00,67.7,39.8,29.97,SSE,153,11.0,12.0,36,0.00,,SKC,0.00,VWS V14.01,2013-03-04 01:29:00,
2013-03-03 19:30:00,64.0,44.5,29.97,SSE,157,8.0,12.0,49,0.00,,SKC,0.00,VWS V14.01,2013-03-04 01:30:00,
2013-03-03 19:34:00,67.5,41.0,29.97,SSE,162,0.0,17.0,38,0.00,,SKC,0.00,VWS V14.01,2013-03-04 01:34:00,
2013-03-03 19:39:00,67.1,42.6,29.97,SSE,165,0.0,12.0,41,0.00,,SKC,0.00,VWS V14.01,2013-03-04 01:39:00,
2013-03-03 19:40:00,63.5,43.5,29.97,SSE,163,1.0,13.0,48,0.00,,SKC,0.00,VWS V14.01,2013-03-04 01:40:00,
2013-03-03 19:44:00,66.7,42.9,29.97,SSE,165,3.0,12.0,42,0.00,,SKC,0.00,VWS V14.01,2013-03-04 01:44:00,
2013-03-03 19:50:00,66.3,43.2,29.97,SSE,162,7.0,12.0,43,0.00,,SKC,0.00,VWS V14.01,2013-03-04 01:50:00,
2013-03-03 19:55:00,66.0,43.5,29.97,SSE,163,2.0,12.0,44,0.00,,SKC,0.00,VWS V14.01,2013-03-04 01:55:00,
2013-03-03 19:59:00,65.6,43.7,29.97,SSE,168,6.0,13.0,45,0.00,,SKC,0.00,VWS V14.01,2013-03-04 01:59:00,
2013-03-03 20:00:00,62.3,43.4,29.97,SSE,166,0.0,11.0,50,0.00,,SKC,0.00,VWS V14.01,2013-03-04 02:00:00,
2013-03-03 20:04:00,65.3,44.0,29.97,South,173,1.0,13.0,46,0.00,,SKC,0.00,VWS V14.01,2013-03-04 02:04:00,
2013-03-03 20:09:00,65.0,43.7,29.97,SSE,154,6.0,13.0,46,0.00,,SKC,0.00,VWS V14.01,2013-03-04 02:09:00,
2013-03-03 20:10:00,61.8,43.0,29.97,SSE,166,0.0,14.0,50,0.00,,SKC,0.00,VWS V14.01,2013-03-04 02:10:00,
2013-03-03 20:14:00,64.8,44.1,29.97,SSE,165,7.0,15.0,47,0.00,,SKC,0.00,VWS V14.01,2013-03-04 02:14:00,
2013-03-03 20:19:00,64.5,43.8,29.97,SSE,161,9.0,12.0,47,0.00,,SKC,0.00,VWS V14.01,2013-03-04 02:19:00,
2013-03-03 20:20:00,61.2,43.0,29.97,SSE,161,0.0,11.0,51,0.00,,SKC,0.00,VWS V14.01,2013-03-04 02:20:00,
2013-03-03 20:24:00,64.2,44.1,29.97,SSE,166,2.0,12.0,48,0.00,,SKC,0.00,VWS V14.01,2013-03-04 02:24:00,
2013-03-03 20:29:00,63.9,43.8,29.97,SSE,163,4.0,13.0,48,0.00,,SKC,0.00,VWS V14.01,2013-03-04 02:29:00,
2013-03-03 20:30:00,60.8,43.1,29.97,South,177,0.0,14.0,52,0.00,,SKC,0.00,VWS V14.01,2013-03-04 02:30:00,
2013-03-03 20:34:00,63.6,43.6,29.97,SSE,164,9.0,13.0,48,0.00,,SKC,0.00,VWS V14.01,2013-03-04 02:34:00,
2013-03-03 20:39:00,63.3,43.8,29.97,SSE,158,6.0,12.0,49,0.00,,SKC,0.00,VWS V14.01,2013-03-04 02:39:00,
2013-03-03 20:40:00,60.4,43.2,29.97,SSE,167,3.0,13.0,53,0.00,,SKC,0.00,VWS V14.01,2013-03-04 02:40:00,
2013-03-03 20:44:00,63.0,43.6,29.97,SSE,167,0.0,12.0,49,0.00,,SKC,0.00,VWS V14.01,2013-03-04 02:44:00,
2013-03-03 20:49:00,62.7,43.3,29.97,South,171,5.0,11.0,49,0.00,,SKC,0.00,VWS V14.01,2013-03-04 02:49:00,
2013-03-03 20:50:00,59.9,42.7,29.97,SSE,162,0.0,11.0,53,0.00,,SKC,0.00,VWS V14.01,2013-03-04 02:50:00,
2013-03-03 20:54:00,62.4,43.0,29.97,SSE,167,5.0,11.0,49,0.00,,SKC,0.00,VWS V14.01,2013-03-04 02:54:00,
2013-03-03 20:59:00,62.1,43.3,29.97,SSE,162,0.0,12.0,50,0.00,,SKC,0.00,VWS V14.01,2013-03-04 02:59:00,
2013-03-03 21:00:00,59.4,42.8,29.97,SSE,166,0.0,9.0,54,0.00,,SKC,0.00,VWS V14.01,2013-03-04 03:00:00,
2013-03-03 21:04:00,61.8,43.0,29.97,South,170,0.0,14.0,50,0.00,,SKC,0.00,VWS V14.01,2013-03-04 03:04:00,
2013-03-03 21:10:00,61.6,42.8,29.97,SSE,166,0.0,9.0,50,0.00,,SKC,0.00,VWS V14.01,2013-03-04 03:10:00,
2013-03-03 21:15:00,61.4,42.6,29.97,SSE,164,0.0,9.0,50,0.00,,SKC,0.00,VWS V14.01,2013-03-04 03:15:00,
2013-03-03 21:20:00,61.1,42.8,29.97,South,173,9.0,10.0,51,0.00,,SKC,0.00,VWS V14.01,2013-03-04 03:20:00,
2013-03-03 21:24:00,60.9,42.7,29.97,South,169,3.0,14.0,51,0.00,,SKC,0.00,VWS V14.01,2013-03-04 03:24:00,
2013-03-03 21:30:00,60.7,43.0,29.97,South,175,0.0,10.0,52,0.00,,SKC,0.00,VWS V14.01,2013-03-04 03:30:00,
2013-03-03 21:35:00,60.5,42.8,29.97,South,169,0.0,13.0,52,0.00,,SKC,0.00,VWS V14.01,2013-03-04 03:35:00,
2013-03-03 21:39:00,60.3,43.1,29.97,SSE,161,0.0,11.0,53,0.00,,SKC,0.00,VWS V14.01,2013-03-04 03:39:00,
2013-03-03 21:40:00,58.3,42.7,29.97,SSE,153,6.0,9.0,56,0.00,,SKC,0.00,VWS V14.01,2013-03-04 03:40:00,
2013-03-03 21:44:00,60.0,42.8,29.97,SSE,161,0.0,11.0,53,0.00,,SKC,0.00,VWS V14.01,2013-03-04 03:44:00,
2013-03-03 21:49:00,59.7,43.0,29.97,SSE,161,0.0,5.0,54,0.00,,SKC,0.00,VWS V14.01,2013-03-04 03:49:00,
2013-03-03 21:50:00,58.0,42.9,29.97,SSE,164,0.0,9.0,57,0.00,,SKC,0.00,VWS V14.01,2013-03-04 03:50:00,
2013-03-03 21:54:00,59.5,42.9,29.97,SSE,166,4.0,9.0,54,0.00,,SKC,0.00,VWS V14.01,2013-03-04 03:54:00,
2013-03-03 21:59:00,59.3,42.7,29.97,SSE,157,5.0,9.0,54,0.00,,SKC,0.00,VWS V14.01,2013-03-04 03:59:00,
2013-03-03 22:00:00,57.7,42.6,29.97,SSE,162,0.0,9.0,57,0.00,,SKC,0.00,VWS V14.01,2013-03-04 04:00:00,
2013-03-03 22:04:00,59.1,43.0,29.97,South,175,5.0,9.0,55,0.00,,SKC,0.00,VWS V14.01,2013-03-04 04:04:00,
2013-03-03 22:09:00,58.9,42.8,29.97,South,178,0.0,8.0,55,0.00,,SKC,0.00,VWS V14.01,2013-03-04 04:09:00,
2013-03-03 22:10:00,57.4,42.8,29.97,SSE,163,0.0,6.0,58,0.00,,SKC,0.00,VWS V14.01,2013-03-04 04:10:00,
2013-03-03 22:14:00,58.8,42.7,29.97,SSE,159,0.0,9.0,55,0.00,,SKC,0.00,VWS V14.01,2013-03-04 04:14:00,
2013-03-03 22:19:00,58.7,42.6,29.97,SSE,168,1.0,5.0,55,0.00,,SKC,0.00,VWS V14.01,2013-03-04 04:19:00,
2013-03-03 22:20:00,57.1,42.9,29.96,SSE,163,0.0,4.0,59,0.00,,SKC,0.00,VWS V14.01,2013-03-04 04:20:00,
2013-03-03 22:24:00,58.7,42.6,29.97,SSE,164,0.0,11.0,55,0.00,,SKC,0.00,VWS V14.01,2013-03-04 04:24:00,
2013-03-03 22:29:00,58.5,42.9,29.97,SSE,158,0.0,9.0,56,0.00,,SKC,0.00,VWS V14.01,2013-03-04 04:29:00,
2013-03-03 22:30:00,56.7,43.0,29.96,SSE,163,0.0,6.0,60,0.00,,SKC,0.00,VWS V14.01,2013-03-04 04:30:00,
2013-03-03 22:34:00,58.4,42.8,29.97,SSE,157,0.0,9.0,56,0.00,,SKC,0.00,VWS V14.01,2013-03-04 04:34:00,
2013-03-03 22:39:00,58.2,42.6,29.97,SSE,160,0.0,6.0,56,0.00,,SKC,0.00,VWS V14.01,2013-03-04 04:39:00,
2013-03-03 22:40:00,56.4,43.1,29.96,SSE,166,0.0,6.0,61,0.00,,SKC,0.00,VWS V14.01,2013-03-04 04:40:00,
2013-03-03 22:44:00,58.0,42.9,29.97,SSE,161,7.0,9.0,57,0.00,,SKC,0.00,VWS V14.01,2013-03-04 04:44:00,
2013-03-03 22:49:00,57.9,42.8,29.97,SSE,154,0.0,9.0,57,0.00,,SKC,0.00,VWS V14.01,2013-03-04 04:49:00,
2013-03-03 22:50:00,56.4,43.6,29.95,SSE,165,0.0,5.0,62,0.00,,SKC,0.00,VWS V14.01,2013-03-04 04:50:00,
2013-03-03 22:54:00,57.8,42.7,29.97,SSE,157,0.0,9.0,57,0.00,,SKC,0.00,VWS V14.01,2013-03-04 04:54:00,
2013-03-03 22:59:00,57.6,42.5,29.97,SSE,161,0.0,4.0,57,0.00,,SKC,0.00,VWS V14.01,2013-03-04 04:59:00,
2013-03-03 23:00:00,57.6,42.5,29.97,SSE,161,0.0,4.0,57,0.00,,SKC,0.00,VWS V14.01,2013-03-04 05:00:00,
2013-03-03 23:05:00,57.5,42.8,29.97,SSE,163,0.0,6.0,58,0.00,,SKC,0.00,VWS V14.01,2013-03-04 05:05:00,
2013-03-03 23:10:00,57.3,42.7,29.97,SSE,163,0.0,0.0,58,0.00,,SKC,0.00,VWS V14.01,2013-03-04 05:10:00,
2013-03-03 23:15:00,57.1,42.9,29.97,SSE,163,0.0,4.0,59,0.00,,SKC,0.00,VWS V14.01,2013-03-04 05:15:00,
2013-03-03 23:20:00,56.9,42.7,29.96,SSE,163,0.0,6.0,59,0.00,,SKC,0.00,VWS V14.01,2013-03-04 05:20:00,
2013-03-03 23:25:00,56.8,43.1,29.96,SSE,163,0.0,6.0,60,0.00,,SKC,0.00,VWS V14.01,2013-03-04 05:25:00,
2013-03-03 23:30:00,56.6,42.9,29.96,SSE,163,0.0,4.0,60,0.00,,SKC,0.00,VWS V14.01,2013-03-04 05:30:00,
2013-03-03 23:35:00,56.5,42.8,29.95,SSE,166,5.0,6.0,60,0.00,,SKC,0.00,VWS V14.01,2013-03-04 05:35:00,
2013-03-03 23:40:00,56.4,43.1,29.95,SSE,165,0.0,5.0,61,0.00,,SKC,0.00,VWS V14.01,2013-03-04 05:40:00,
2013-03-03 23:45:00,56.4,43.6,29.95,SSE,164,0.0,5.0,62,0.00,,SKC,0.00,VWS V14.01,2013-03-04 05:45:00,
2013-03-03 23:50:00,56.4,43.6,29.95,SSE,165,0.0,6.0,62,0.00,,SKC,0.00,VWS V14.01,2013-03-04 05:50:00,
2013-03-03 23:55:00,56.5,43.7,29.95,South,175,6.0,9.0,62,0.00,,SKC,0.00,VWS V14.01,2013-03-04 05:55:00,